Voltar ao catálogo

ARIANE 44L+3 R/B

AtivoHEO
NORAD 23866·ROCKET BODY·🇫🇷 France

Lançado May 16, 1996 de Guiana Space Centre

Loading…

Próximas Passagens (próximas 24 horas)

TLE

AtualizadoSource: Space-Track

Época: Sep 14, 2026, 07:11 UTC

1 23866U 96030C   26257.29958877  .00002007  00000-0  74367-3 0  9999
2 23866   4.0659 186.1995 6700578 245.2579  33.6535  3.02368172285357

Acompanhe ARIANE 44L+3 R/B em tempo real com AllMySat

Download on the App Store